Wetbulb
37.43 37.39 37.16 36.98 36.87 36.61 36.43 36.28 36.39 36.49 36.49 36.48 36.29 36.30 36.28 36.11 35.78 35.66 35.77 35.88 35.73 35.66 35.77 35.98 36.22 36.42 36.76 37.00 37.15 37.30 37.45 37.54 37.54 37.65 37.69 37.54 37.60 37.82 38.08 38.13 38.36 38.74 39.17 39.76 40.79 41.58 42.21 42.81 43.12 43.13 43.19 43.30 43.14 43.31 43.78 44.64 45.01 44.79 44.28 43.79 43.35 43.29 43.24 43.33 43.27 43.35 43.56 43.90 44.59
36.83 36.91 36.91 36.72 36.58 36.40 36.22 35.99 36.05 36.12 36.20 36.23 36.23 36.23 36.17 35.88 35.63 35.54 35.60 35.73 35.78 35.90 35.98 36.01 36.42 36.49 36.58 36.67 36.97 37.08 37.05 37.09 37.13 37.24 37.35 37.28 37.45 37.66 37.80 37.92 38.04 38.19 38.58 39.01 39.76 40.39 40.98 41.73 41.96 42.01 42.06 42.23 42.24 42.24 42.82 44.21 44.72 44.62 44.14 43.87 43.45 43.13 42.90 42.76 42.80 42.97 43.15 43.27 43.82
36.48 36.60 36.57 36.47 36.32 36.00 35.75 35.52 35.72 35.90 36.01 36.12 36.27 36.20 35.99 35.78 35.66 35.53 35.56 35.76 36.05 36.13 36.10 36.00 36.37 36.52 36.51 36.62 36.82 36.90 36.90 36.86 36.86 36.94 36.87 36.91 37.02 37.16 37.30 37.53 37.59 37.88 38.20 38.44 39.04 39.60 40.15 40.86 40.97 41.05 41.06 41.10 41.23 41.23 41.55 42.69 43.51 43.75 43.67 43.73 43.58 43.20 42.75 42.26 42.45 42.67 42.89 42.80 43.09
36.28 36.22 36.08 35.98 35.84 35.66 35.52 35.41 35.52 35.59 35.66 35.84 36.13 36.09 35.91 35.70 35.65 35.68 35.78 35.98 36.01 35.97 35.87 35.95 36.48 36.75 36.76 36.62 36.59 36.64 36.75 36.85 36.75 36.60 36.56 36.56 36.68 36.76 36.98 37.25 37.08 37.38 37.79 38.16 38.63 39.14 39.64 40.08 40.07 40.19 40.35 40.71 40.55 40.51 40.74 41.56 42.56 42.97 43.14 43.38 43.48 43.28 42.82 42.29 42.43 42.51 42.60 42.55 42.80
35.88 35.83 35.77 35.60 35.52 35.49 35.53 35.58 35.47 35.44 35.59 35.88 35.81 35.71 35.63 35.61 35.68 35.79 35.75 35.67 35.43 35.45 35.64 35.99 36.42 36.75 36.85 36.60 36.50 36.44 36.48 36.55 36.54 36.40 36.25 36.29 36.41 36.56 36.67 36.78 36.80 36.97 37.24 37.72 38.30 38.97 39.37 39.44 39.14 39.25 39.68 40.04 39.91 39.98 40.49 41.31 41.80 42.20 42.61 42.88 43.06 42.99 42.79 42.28 42.26 42.41 42.40 42.39 42.59
35.56 35.60 35.69 35.67 35.53 35.50 35.40 35.47 35.52 35.60 35.72 35.90 35.62 35.44 35.26 35.26 35.45 35.41 35.30 35.12 35.27 35.50 35.79 35.86 35.93 36.22 36.44 36.34 36.22 36.19 36.19 36.26 36.22 36.18 36.06 36.01 36.07 36.24 36.32 36.35 36.61 36.81 36.99 37.11 37.71 38.47 39.02 39.04 38.36 38.44 38.94 39.29 39.56 39.83 40.30 40.90 41.07 41.39 41.80 41.87 42.28 42.53 42.58 42.20 42.15 42.23 42.35 42.28 42.22
35.46 35.44 35.46 35.50 35.46 35.34 35.29 35.44 35.64 35.73 35.75 35.67 35.45 35.23 35.08 35.19 35.24 35.22 35.20 35.23 35.26 35.37 35.47 35.55 35.56 35.71 35.80 35.90 35.84 35.78 35.76 35.83 35.94 36.01 35.93 35.75 35.77 35.84 35.96 35.94 36.16 36.21 36.33 36.51 36.88 37.56 38.16 38.43 37.69 37.70 38.15 38.70 38.97 39.44 39.97 40.54 40.48 40.61 40.74 40.87 41.35 41.84 42.33 42.69 42.30 42.14 42.15 42.26 42.15
35.40 35.38 35.35 35.41 35.33 35.33 35.23 35.28 35.47 35.43 35.29 35.24 35.20 35.08 34.97 35.10 35.09 35.03 35.09 35.10 35.00 35.10 35.19 35.27 35.45 35.55 35.64 35.57 35.56 35.53 35.44 35.57 35.55 35.68 35.72 35.64 35.65 35.65 35.72 35.76 35.76 35.86 35.93 36.10 36.33 36.84 37.35 37.46 37.21 37.38 37.64 38.04 38.25 38.77 39.60 40.26 40.14 40.04 40.06 40.01 40.54 41.14 42.03 42.75 42.73 42.33 41.88 42.08 42.31
35.15 35.15 35.23 35.28 35.21 35.23 35.19 35.30 35.37 35.18 35.00 34.90 34.93 35.08 34.99 35.03 35.01 34.92 34.81 34.67 34.89 35.10 35.24 35.19 35.35 35.53 35.53 35.40 35.36 35.34 35.24 35.20 35.31 35.52 35.74 35.78 35.81 35.76 35.68 35.46 35.43 35.56 35.67 35.81 35.94 36.36 36.79 36.73 36.81 37.13 37.47 37.54 37.92 38.65 39.40 39.95 39.78 39.68 39.53 39.40 39.76 40.28 40.89 41.44 41.68 41.60 41.43 41.57 41.91
34.89 34.89 35.01 34.88 34.89 35.06 35.32 35.37 35.44 35.28 35.04 34.77 34.84 34.90 35.00 35.00 34.93 34.81 34.71 34.86 35.23 35.23 35.01 34.97 35.24 35.26 35.19 35.04 35.06 35.06 35.09 35.13 35.23 35.47 35.67 35.65 35.68 35.78 35.70 35.25 35.31 35.38 35.40 35.49 35.59 35.90 36.27 36.28 36.54 37.05 37.59 37.72 38.23 38.70 39.22 39.64 39.41 39.30 39.14 38.84 39.37 39.69 39.92 40.14 40.52 40.64 40.77 40.93 41.27
34.73 34.85 34.88 34.76 34.85 35.22 35.50 35.43 35.49 35.38 35.18 34.98 34.92 34.89 34.89 34.87 34.87 34.94 35.10 35.44 35.22 34.92 34.73 34.97 35.07 35.04 34.95 34.83 34.90 34.97 35.09 35.13 35.21 35.39 35.34 35.28 35.32 35.36 35.31 35.13 35.24 35.29 35.31 35.17 35.25 35.41 35.69 35.82 36.30 36.92 37.37 37.41 38.10 38.64 39.01 39.08 39.09 39.01 38.87 38.77 39.02 39.10 39.13 39.15 39.56 39.91 40.18 40.19 40.50
34.70 34.76 34.80 34.91 35.17 35.47 35.61 35.43 35.40 35.43 35.24 34.97 34.98 34.90 34.83 34.80 34.91 35.10 35.28 35.23 34.79 34.68 34.78 35.11 35.06 34.91 34.79 34.75 34.77 34.93 35.09 35.26 35.37 35.42 35.38 35.22 35.14 35.10 35.06 35.04 35.10 35.11 35.04 35.10 34.98 34.95 35.01 35.29 35.82 36.28 36.70 37.07 37.86 38.39 38.65 38.68 38.57 38.49 38.46 38.46 38.65 38.57 38.56 38.77 39.07 39.40 39.72 39.55 39.86
34.74 34.74 34.82 35.02 35.33 35.50 35.48 35.38 35.35 35.23 35.07 34.83 34.87 34.88 34.79 34.71 34.87 35.07 35.06 34.72 34.54 34.60 34.84 35.17 35.09 34.98 34.79 34.75 34.83 34.95 35.11 35.19 35.25 35.29 35.19 35.05 35.00 35.00 34.90 34.93 34.84 34.77 34.79 34.83 34.80 34.72 34.60 34.73 35.15 35.61 36.05 36.47 37.22 37.82 38.14 38.39 38.18 38.09 38.02 37.82 38.02 38.11 38.23 38.53 38.83 38.96 38.99 39.02 39.15
34.62 34.62 34.64 34.93 35.29 35.34 35.33 35.08 34.97 34.88 34.71 34.50 34.61 34.64 34.60 34.58 34.78 34.92 34.90 34.50 34.39 34.49 34.74 34.91 34.95 34.91 34.81 34.81 34.77 34.95 35.04 35.11 35.12 35.09 34.97 34.89 34.84 34.82 34.78 34.69 34.65 34.60 34.56 34.60 34.70 34.66 34.44 34.30 34.57 34.94 35.32 35.84 36.42 37.06 37.66 38.08 38.03 37.94 37.82 37.62 37.65 37.84 38.13 38.35 38.58 38.69 38.67 38.59 38.51
34.34 34.29 34.37 34.75 34.93 35.02 34.96 34.72 34.58 34.45 34.37 34.14 34.31 34.45 34.40 34.35 34.43 34.65 34.62 34.27 34.28 34.46 34.55 34.56 34.58 34.72 34.82 34.77 34.67 34.83 34.99 34.99 34.90 34.73 34.64 34.58 34.56 34.56 34.52 34.52 34.52 34.42 34.42 34.42 34.56 34.52 34.48 34.26 34.43 34.65 34.87 35.29 35.86 36.49 37.07 37.46 37.65 37.64 37.74 37.71 37.74 37.81 37.93 38.15 38.34 38.46 38.44 38.24 38.05
34.04 34.06 34.13 34.43 34.60 34.57 34.48 34.29 34.20 34.13 34.05 33.95 34.13 34.17 34.13 34.04 34.07 34.20 34.15 33.99 34.09 34.21 34.27 34.15 34.25 34.42 34.62 34.67 34.50 34.73 34.86 34.73 34.53 34.40 34.22 34.12 34.09 34.12 34.23 34.22 34.29 34.23 34.13 34.18 34.28 34.30 34.40 34.38 34.52 34.66 34.94 35.24 35.67 36.14 36.61 36.93 37.11 37.26 37.30 37.40 37.51 37.60 37.82 38.10 38.18 38.26 38.24 38.08 37.70
33.76 33.68 33.85 34.09 34.15 34.12 34.06 33.88 33.91 33.85 33.82 33.81 33.86 33.80 33.68 33.60 33.69 33.66 33.64 33.59 33.70 33.74 33.80 33.77 34.02 34.19 34.22 34.32 34.43 34.54 34.55 34.37 34.20 34.02 33.88 33.69 33.69 33.76 33.87 33.94 33.96 34.08 33.95 33.90 33.86 33.98 34.08 34.26 34.56 34.86 35.19 35.57 35.89 36.24 36.60 36.80 36.96 37.01 36.98 37.02 37.12 37.22 37.42 37.71 37.84 37.98 37.92 37.97 37.61
33.44 33.40 33.49 33.69 33.73 33.69 33.65 33.65 33.68 33.66 33.54 33.45 33.37 33.36 33.25 33.17 33.10 33.19 33.33 33.39 33.35 33.26 33.21 33.46 33.86 34.05 34.01 33.99 34.17 34.30 34.23 34.04 33.86 33.74 33.68 33.59 33.68 33.67 33.67 33.78 33.85 33.86 33.84 33.74 33.65 33.61 33.69 33.98 34.34 34.89 35.38 35.89 36.29 36.57 36.78 36.92 36.99 36.96 36.98 36.89 36.89 36.98 37.06 37.17 37.25 37.34 37.46 37.53 37.51
33.28 33.26 33.29 33.40 33.42 33.33 33.36 33.39 33.39 33.31 33.17 33.05 32.92 32.88 32.84 32.68 32.60 32.81 33.14 33.41 33.19 32.89 32.79 33.12 33.57 33.84 34.00 33.83 33.99 34.03 33.99 33.87 33.70 33.62 33.60 33.66 33.69 33.67 33.59 33.64 33.61 33.66 33.59 33.53 33.55 33.55 33.61 33.82 34.30 34.89 35.50 36.01 36.41 36.70 36.91 37.02 37.00 37.00 36.92 36.87 36.92 36.89 36.91 36.95 36.94 37.12 37.18 37.22 37.26
33.38 33.24 33.26 33.28 33.11 33.05 33.01 32.99 32.97 32.84 32.68 32.70 32.45 32.38 32.41 32.31 32.38 32.52 32.79 33.02 32.79 32.63 32.71 33.00 33.29 33.48 33.68 33.75 33.76 33.74 33.73 33.71 33.66 33.50 33.50 33.60 33.61 33.51 33.43 33.35 33.30 33.41 33.45 33.39 33.48 33.52 33.60 33.90 34.44 35.03 35.64 36.05 36.33 36.60 36.83 36.87 36.85 36.84 36.81 36.83 36.90 36.94 36.91 36.91 36.95 36.95 37.03 37.03 36.99
33.41 33.38 33.25 33.05 32.91 32.78 32.69 32.64 32.46 32.26 32.20 32.15 32.07 32.03 32.03 32.13 32.27 32.37 32.39 32.35 32.31 32.48 32.65 32.86 32.96 33.02 33.06 33.13 33.09 33.13 33.32 33.42 33.40 33.36 33.29 33.39 33.37 33.35 33.31 33.13 33.05 33.17 33.31 33.32 33.29 33.34 33.53 34.02 34.62 35.22 35.73 36.09 36.21 36.42 36.56 36.66 36.62 36.54 36.62 36.60 36.71 36.82 36.85 36.90 36.87 36.83 36.74 36.79 36.80
33.41 33.26 32.99 32.71 32.48 32.39 32.27 32.23 32.13 31.99 31.88 31.83 31.76 31.70 31.81 31.96 32.22 32.25 32.08 31.95 32.08 32.29 32.53 32.58 32.57 32.52 32.53 32.39 32.43 32.53 32.69 32.95 33.12 33.20 33.23 33.21 33.21 33.26 33.25 33.13 33.00 32.99 33.04 33.13 33.21 33.32 33.53 34.06 34.69 35.32 35.64 35.91 36.08 36.33 36.40 36.40 36.36 36.29 36.34 36.35 36.43 36.49 36.63 36.70 36.67 36.66 36.69 36.66 36.72
33.33 32.97 32.64 32.38 32.13 31.98 31.98 31.98 31.90 31.85 31.82 31.71 31.62 31.60 31.66 31.85 31.98 32.02 31.93 31.94 32.13 32.34 32.46 32.55 32.47 32.32 32.17 32.09 32.09 32.08 32.18 32.40 32.71 32.95 33.09 33.13 33.15 33.19 33.25 33.28 33.05 32.99 32.92 33.11 33.09 33.24 33.50 33.92 34.60 35.22 35.60 35.76 35.92 36.11 36.19 36.18 36.14 36.10 36.03 36.05 36.11 36.21 36.32 36.35 36.46 36.49 36.53 36.45 36.40
32.83 32.48 32.29 32.17 31.81 31.63 31.65 31.58 31.58 31.61 31.63 31.55 31.54 31.48 31.46 31.54 31.71 31.81 32.01 32.18 32.41 32.50 32.52 32.69 32.52 32.27 32.05 32.24 32.20 32.15 32.07 32.12 32.27 32.60 32.85 33.01 33.05 33.09 33.09 33.21 33.16 33.04 33.02 33.14 33.11 33.14 33.44 33.84 34.46 35.00 35.41 35.75 35.85 35.91 35.98 36.01 35.94 35.93 35.83 35.79 35.71 35.78 35.95 36.07 36.26 36.19 36.15 36.26 36.13
32.24 31.90 31.73 31.57 31.28 31.26 31.38 31.38 31.43 31.44 31.39 31.28 31.21 31.17 31.26 31.38 31.50 31.76 31.98 32.31 32.65 32.57 32.48 32.31 32.26 32.38 32.58 32.70 32.76 32.69 32.64 32.49 32.46 32.45 32.53 32.64 32.85 32.92 33.02 33.08 33.09 33.20 33.29 33.22 33.15 33.44 34.02 34.56 34.89 35.09 35.24 35.56 35.64 35.67 35.74 35.90 35.82 35.77 35.70 35.57 35.40 35.37 35.40 35.60 35.80 35.92 36.07 36.03 36.09
31.57 31.37 31.23 30.98 30.75 30.80 31.08 31.17 31.21 31.16 31.03 30.94 30.89 31.05 31.26 31.48 31.66 31.74 31.94 32.31 32.49 32.44 32.33 32.33 32.46 32.73 33.01 33.06 33.01 33.02 32.98 32.87 32.74 32.53 32.40 32.34 32.44 32.56 32.72 32.85 33.11 33.31 33.33 33.21 33.46 34.02 34.71 35.36 35.60 35.64 35.53 35.34 35.42 35.37 35.33 35.42 35.65 35.69 35.64 35.54 35.40 35.22 34.97 34.87 35.02 35.34 35.67 35.80 35.98
31.15 31.08 30.99 30.56 30.41 30.50 30.78 31.01 30.91 30.82 30.70 30.77 30.87 31.07 31.23 31.38 31.57 31.74 31.97 32.20 32.34 32.39 32.53 32.69 32.78 32.85 32.90 32.94 32.84 32.81 32.69 32.65 32.61 32.56 32.36 32.31 32.21 32.09 32.24 32.49 32.90 33.20 33.37 33.41 33.90 34.49 35.09 35.55 35.81 35.82 35.71 35.39 35.27 35.16 35.06 35.03 35.29 35.41 35.42 35.33 35.32 35.12 34.85 34.59 34.50 34.71 35.02 35.31 35.65
30.87 30.80 30.60 30.20 30.26 30.41 30.68 30.83 30.75 30.81 30.95 30.94 30.91 30.85 30.90 30.88 31.14 31.54 31.82 32.11 32.31 32.49 32.68 32.85 32.86 32.87 32.88 32.81 32.63 32.51 32.52 32.44 32.44 32.44 32.39 32.31 32.15 31.98 32.04 32.31 32.78 33.09 33.40 33.68 34.17 34.65 35.06 35.39 35.60 35.74 35.69 35.42 35.23 35.20 35.10 35.02 35.06 35.07 35.07 34.99 34.95 34.93 34.72 34.54 34.50 34.41 34.48 34.65 35.09
30.32 30.14 29.98 29.98 30.28 30.51 30.60 30.79 30.83 30.85 30.88 30.81 30.60 30.43 30.39 30.68 31.08 31.46 31.79 32.05 32.11 32.14 32.22 32.41 32.54 32.52 32.45 32.20 32.25 32.24 32.26 32.24 32.36 32.36 32.28 32.16 32.04 32.01 32.17 32.33 32.52 32.92 33.29 33.83 34.35 34.66 34.92 35.06 35.27 35.57 35.60 35.52 35.07 34.93 34.91 34.89 34.86 34.83 34.82 34.76 34.71 34.69 34.69 34.58 34.45 34.38 34.30 34.26 34.43
29.68 29.56 29.65 29.82 30.24 30.46 30.67 30.76 30.77 30.59 30.42 30.48 30.27 30.21 30.42 30.89 31.31 31.60 31.68 31.71 31.67 31.72 31.80 32.01 31.95 31.93 31.75 31.76 31.91 31.97 31.97 32.05 32.27 32.28 32.12 31.95 31.82 31.95 32.18 32.33 32.43 32.76 33.26 33.90 34.32 34.52 34.71 34.82 35.00 35.17 35.32 35.39 35.01 34.83 34.66 34.65 34.53 34.46 34.39 34.47 34.60 34.64 34.64 34.57 34.45 34.37 34.20 34.07 34.00
29.27 29.25 29.44 29.85 30.19 30.53 30.74 30.79 30.42 30.18 29.97 30.09 30.15 30.38 30.67 31.10 31.26 31.39 31.39 31.29 31.32 31.50 31.68 31.78 31.54 31.54 31.52 31.75 31.82 31.84 31.82 31.91 32.05 32.06 31.94 31.78 31.79 31.85 31.97 32.15 32.24 32.54 33.05 33.79 34.18 34.36 34.62 34.67 34.79 34.90 35.03 35.06 34.75 34.50 34.42 34.39 34.35 34.17 34.17 34.26 34.39 34.50 34.49 34.45 34.36 34.22 34.09 33.92 33.74
28.88 28.96 29.28 29.77 30.22 30.50 30.60 30.46 30.18 29.99 29.93 29.98 30.21 30.51 30.73 30.98 31.23 31.29 31.32 31.30 31.30 31.32 31.38 31.34 31.25 31.30 31.37 31.61 31.69 31.71 31.69 31.75 31.71 31.78 31.80 31.81 31.66 31.67 31.70 31.80 31.94 32.35 32.84 33.64 34.02 34.32 34.50 34.62 34.67 34.77 34.79 34.88 34.53 34.39 34.27 34.14 34.15 34.13 34.11 34.22 34.35 34.43 34.40 34.32 34.17 34.13 34.00 33.87 33.64
28.77 28.96 29.38 29.84 30.14 30.33 30.33 30.27 30.11 30.01 29.98 30.13 30.46 30.62 30.76 30.96 31.15 31.39 31.46 31.43 31.28 31.12 31.03 31.03 31.01 31.00 31.02 31.11 31.17 31.23 31.33 31.41 31.46 31.61 31.79 31.82 31.59 31.42 31.45 31.49 31.83 32.34 32.95 33.62 33.99 34.26 34.46 34.56 34.58 34.60 34.62 34.67 34.22 34.01 33.96 33.86 33.89 33.96 33.96 34.07 34.29 34.37 34.45 34.36 34.07 34.00 33.88 33.81 33.72
28.91 29.20 29.56 29.87 30.00 30.14 30.18 30.26 30.19 30.09 30.04 30.32 30.60 30.80 30.85 30.94 31.01 31.12 31.23 31.19 31.22 31.20 31.20 31.18 31.13 31.05 31.05 31.06 31.03 30.90 31.01 31.23 31.40 31.55 31.62 31.58 31.43 31.31 31.13 31.09 31.65 32.42 33.10 33.62 33.95 34.22 34.34 34.40 34.38 34.36 34.45 34.45 33.94 33.60 33.50 33.45 33.50 33.50 33.58 33.67 33.93 34.15 34.21 34.21 34.15 34.09 33.99 33.98 33.76
29.27 29.47 29.74 29.94 30.08 30.10 30.24 30.24 30.25 30.21 30.26 30.31 30.55 30.74 30.90 30.88 30.89 30.82 30.85 30.93 30.95 31.05 31.18 31.35 31.40 31.43 31.37 31.39 31.30 31.16 31.10 31.19 31.28 31.45 31.50 31.47 31.24 30.95 30.80 30.86 31.43 32.30 33.15 33.57 33.86 33.99 34.10 34.12 34.16 34.18 34.12 33.85 33.38 33.18 33.09 33.06 32.94 33.06 33.22 33.29 33.44 33.70 33.93 34.12 34.06 34.10 34.12 34.02 33.78
29.35 29.52 29.76 30.02 30.15 30.15 30.10 30.12 30.16 30.16 30.14 30.28 30.37 30.53 30.64 30.80 30.78 30.84 30.85 30.82 30.73 30.72 30.84 31.09 31.32 31.29 31.25 31.23 31.38 31.35 31.32 31.21 31.16 31.23 31.34 31.37 31.04 30.67 30.45 30.65 31.05 31.98 32.84 33.40 33.58 33.68 33.70 33.82 33.88 33.86 33.71 33.25 32.93 32.78 32.74 32.67 32.61 32.71 32.83 32.87 32.95 33.19 33.50 33.74 33.86 33.93 33.93 33.93 33.90
29.27 29.39 29.55 29.75 29.87 29.96 30.01 30.03 29.98 29.98 30.03 30.13 30.23 30.31 30.36 30.46 30.57 30.75 30.85 30.75 30.51 30.47 30.52 30.80 30.90 30.90 30.95 31.02 31.12 31.24 31.30 31.30 31.10 30.95 31.02 31.13 30.93 30.58 30.37 30.37 30.79 31.46 32.28 33.01 33.22 33.31 33.47 33.61 33.68 33.67 33.31 32.60 32.26 32.18 32.16 32.12 32.13 32.22 32.28 32.36 32.59 32.90 33.29 33.50 33.64 33.78 33.83 33.90 33.83
29.27 29.31 29.27 29.32 29.48 29.64 29.82 29.81 29.75 29.73 29.75 29.92 30.07 30.18 30.28 30.28 30.33 30.53 30.63 30.53 30.31 30.19 30.26 30.45 30.47 30.56 30.75 30.92 30.89 31.01 31.21 31.28 31.13 30.92 30.77 30.75 30.86 30.65 30.39 30.14 30.45 30.97 31.69 32.56 32.89 33.05 33.26 33.41 33.55 33.47 32.99 32.11 31.83 31.66 31.58 31.54 31.54 31.62 31.75 31.92 32.22 32.65 33.04 33.23 33.39 33.50 33.63 33.79 33.68
29.32 29.28 29.21 29.25 29.29 29.45 29.46 29.56 29.60 29.64 29.63 29.73 29.86 30.02 30.13 30.10 30.15 30.37 30.59 30.66 30.42 30.23 30.07 30.03 30.10 30.32 30.60 30.76 30.65 30.63 30.72 30.97 31.07 30.95 30.79 30.61 30.78 30.73 30.53 30.05 30.20 30.64 31.34 32.21 32.61 32.85 33.07 33.21 33.30 33.25 32.95 32.07 31.62 31.41 31.25 31.14 31.01 31.05 31.30 31.52 31.78 32.18 32.55 32.94 33.10 33.20 33.35 33.65 33.72
29.38 29.25 29.19 29.19 29.27 29.31 29.32 29.38 29.49 29.68 29.76 29.76 29.72 29.74 29.85 29.88 30.02 30.31 30.53 30.67 30.61 30.42 30.21 29.97 30.06 30.24 30.47 30.52 30.26 30.17 30.20 30.42 30.76 30.80 30.76 30.68 30.77 30.78 30.59 30.13 30.07 30.37 31.02 31.88 32.32 32.61 32.75 32.88 32.98 33.06 32.73 31.91 31.57 31.29 31.08 30.80 30.59 30.51 30.55 30.81 31.13 31.37 31.81 32.39 32.76 32.91 33.11 33.43 33.71
29.34 29.21 29.15 29.23 29.23 29.25 29.21 29.27 29.54 29.80 29.93 29.80 29.67 29.68 29.82 29.91 30.02 30.15 30.38 30.46 30.45 30.29 30.15 29.97 30.04 30.12 30.23 30.20 29.97 29.78 29.67 29.74 30.15 30.51 30.67 30.69 30.66 30.64 30.50 30.24 30.07 30.14 30.56 31.23 31.80 32.25 32.48 32.64 32.80 32.89 32.63 31.84 31.57 31.25 30.97 30.50 30.07 29.79 29.83 30.13 30.50 30.76 30.98 31.49 32.08 32.39 32.71 33.01 33.33
MSLP
1018.86 1018.82 1018.78 1018.82 1018.82 1018.78 1018.78 1018.86 1018.86 1018.90 1018.90 1018.86 1018.86 1018.82 1018.70 1018.70 1018.70 1018.70 1018.74 1018.70 1018.66 1018.62 1018.58 1018.54 1018.50 1018.42 1018.34 1018.18 1018.06 1017.90 1017.74 1017.58 1017.46 1017.38 1017.26 1017.14 1017.06 1016.98 1016.82 1016.66 1016.54 1016.34 1016.14 1015.94 1015.70 1015.50 1015.26 1015.14 1014.98 1014.90 1014.86 1014.86 1014.78 1014.70 1014.66 1014.62 1014.42 1014.26 1014.14 1014.22 1014.14 1014.06 1013.98 1013.86 1013.74 1013.70 1013.58 1013.54 1013.42
1018.98 1018.94 1018.94 1018.94 1018.94 1018.94 1018.94 1018.94 1018.98 1018.98 1018.98 1018.98 1018.98 1018.94 1018.86 1018.82 1018.86 1018.86 1018.86 1018.86 1018.86 1018.82 1018.70 1018.66 1018.66 1018.58 1018.42 1018.30 1018.14 1017.98 1017.86 1017.70 1017.58 1017.46 1017.34 1017.26 1017.18 1017.10 1016.98 1016.86 1016.74 1016.62 1016.42 1016.22 1015.98 1015.78 1015.58 1015.38 1015.26 1015.14 1015.02 1014.98 1014.90 1014.86 1014.78 1014.70 1014.58 1014.38 1014.22 1014.22 1014.22 1014.22 1014.14 1013.98 1013.94 1013.86 1013.74 1013.66 1013.58
1019.06 1019.02 1018.98 1018.98 1018.98 1018.98 1018.98 1019.02 1019.02 1019.02 1019.02 1019.06 1019.06 1019.06 1018.98 1018.98 1018.98 1018.98 1018.98 1018.98 1018.98 1018.90 1018.86 1018.78 1018.74 1018.66 1018.54 1018.38 1018.22 1018.10 1017.98 1017.86 1017.70 1017.58 1017.46 1017.34 1017.26 1017.18 1017.10 1017.02 1016.90 1016.78 1016.70 1016.54 1016.34 1016.14 1015.90 1015.70 1015.54 1015.38 1015.26 1015.18 1015.14 1015.06 1014.98 1014.82 1014.66 1014.50 1014.38 1014.30 1014.30 1014.30 1014.26 1014.14 1014.14 1014.02 1013.90 1013.82 1013.70
1019.10 1019.06 1019.02 1019.02 1018.98 1019.02 1019.06 1019.10 1019.10 1019.10 1019.10 1019.14 1019.14 1019.14 1019.10 1019.10 1019.06 1019.06 1019.10 1019.10 1019.02 1018.98 1018.94 1018.90 1018.86 1018.78 1018.66 1018.46 1018.30 1018.18 1018.10 1017.98 1017.86 1017.70 1017.58 1017.50 1017.42 1017.30 1017.22 1017.14 1017.02 1016.94 1016.86 1016.78 1016.62 1016.42 1016.22 1015.98 1015.82 1015.70 1015.58 1015.46 1015.38 1015.30 1015.22 1015.06 1014.86 1014.70 1014.58 1014.46 1014.46 1014.42 1014.42 1014.34 1014.30 1014.18 1014.10 1013.98 1013.90
1019.14 1019.14 1019.10 1019.14 1019.14 1019.14 1019.18 1019.22 1019.18 1019.18 1019.18 1019.18 1019.14 1019.14 1019.14 1019.14 1019.14 1019.10 1019.06 1019.06 1019.06 1019.06 1019.06 1019.06 1018.98 1018.86 1018.70 1018.58 1018.38 1018.26 1018.14 1018.06 1017.98 1017.86 1017.74 1017.66 1017.58 1017.46 1017.38 1017.26 1017.18 1017.10 1016.98 1016.94 1016.82 1016.70 1016.50 1016.26 1016.10 1015.98 1015.86 1015.70 1015.62 1015.58 1015.54 1015.34 1015.10 1014.90 1014.74 1014.70 1014.62 1014.58 1014.58 1014.54 1014.42 1014.38 1014.30 1014.18 1014.06
1019.18 1019.18 1019.18 1019.22 1019.26 1019.26 1019.26 1019.30 1019.26 1019.26 1019.26 1019.26 1019.18 1019.18 1019.18 1019.18 1019.14 1019.14 1019.10 1019.10 1019.14 1019.14 1019.14 1019.10 1018.98 1018.86 1018.74 1018.58 1018.42 1018.30 1018.22 1018.14 1018.06 1017.98 1017.86 1017.78 1017.70 1017.62 1017.50 1017.42 1017.34 1017.26 1017.14 1017.06 1016.94 1016.82 1016.70 1016.50 1016.30 1016.22 1016.14 1016.02 1015.94 1015.90 1015.82 1015.62 1015.38 1015.14 1014.98 1014.86 1014.78 1014.74 1014.70 1014.70 1014.66 1014.54 1014.42 1014.30 1014.14
1019.26 1019.26 1019.26 1019.30 1019.30 1019.30 1019.30 1019.38 1019.38 1019.34 1019.34 1019.30 1019.26 1019.26 1019.26 1019.26 1019.18 1019.14 1019.14 1019.14 1019.14 1019.14 1019.14 1019.10 1018.98 1018.86 1018.78 1018.66 1018.54 1018.42 1018.34 1018.26 1018.14 1018.06 1017.98 1017.86 1017.82 1017.70 1017.62 1017.54 1017.46 1017.34 1017.26 1017.18 1017.06 1016.98 1016.86 1016.70 1016.54 1016.46 1016.38 1016.26 1016.14 1016.10 1016.02 1015.90 1015.70 1015.46 1015.26 1015.06 1014.98 1014.94 1014.86 1014.82 1014.78 1014.66 1014.50 1014.38 1014.26
1019.34 1019.38 1019.38 1019.38 1019.38 1019.38 1019.38 1019.38 1019.38 1019.38 1019.38 1019.34 1019.34 1019.30 1019.30 1019.30 1019.26 1019.26 1019.22 1019.18 1019.18 1019.18 1019.18 1019.14 1019.10 1018.98 1018.86 1018.74 1018.66 1018.58 1018.46 1018.34 1018.26 1018.14 1018.06 1017.98 1017.90 1017.82 1017.74 1017.70 1017.58 1017.50 1017.38 1017.30 1017.22 1017.14 1016.98 1016.86 1016.78 1016.70 1016.58 1016.46 1016.38 1016.30 1016.26 1016.14 1015.98 1015.78 1015.58 1015.38 1015.26 1015.14 1015.10 1014.98 1014.90 1014.78 1014.62 1014.46 1014.34
1019.42 1019.42 1019.42 1019.42 1019.42 1019.42 1019.42 1019.42 1019.38 1019.38 1019.38 1019.42 1019.42 1019.38 1019.38 1019.38 1019.34 1019.30 1019.26 1019.26 1019.26 1019.26 1019.26 1019.18 1019.14 1019.02 1018.94 1018.86 1018.74 1018.66 1018.58 1018.46 1018.38 1018.30 1018.14 1018.10 1017.98 1017.90 1017.82 1017.74 1017.70 1017.58 1017.50 1017.42 1017.34 1017.26 1017.14 1016.98 1016.98 1016.90 1016.86 1016.70 1016.62 1016.58 1016.46 1016.34 1016.18 1015.98 1015.86 1015.66 1015.58 1015.42 1015.26 1015.18 1015.02 1014.90 1014.78 1014.58 1014.46
1019.38 1019.42 1019.38 1019.42 1019.42 1019.42 1019.42 1019.38 1019.42 1019.38 1019.38 1019.42 1019.42 1019.42 1019.42 1019.42 1019.38 1019.38 1019.38 1019.42 1019.38 1019.34 1019.30 1019.26 1019.14 1019.06 1018.98 1018.86 1018.82 1018.74 1018.66 1018.58 1018.42 1018.38 1018.30 1018.14 1018.10 1017.98 1017.90 1017.82 1017.78 1017.70 1017.58 1017.50 1017.42 1017.34 1017.26 1017.14 1017.14 1017.10 1016.98 1016.86 1016.78 1016.70 1016.58 1016.46 1016.30 1016.18 1016.02 1015.90 1015.82 1015.66 1015.50 1015.38 1015.22 1015.02 1014.86 1014.78 1014.58
1019.38 1019.38 1019.38 1019.38 1019.42 1019.42 1019.38 1019.30 1019.38 1019.42 1019.42 1019.42 1019.42 1019.42 1019.42 1019.42 1019.42 1019.46 1019.50 1019.50 1019.42 1019.34 1019.34 1019.30 1019.22 1019.14 1019.02 1018.94 1018.90 1018.86 1018.74 1018.66 1018.58 1018.42 1018.30 1018.26 1018.14 1018.10 1018.02 1017.98 1017.86 1017.82 1017.74 1017.66 1017.54 1017.42 1017.34 1017.26 1017.22 1017.14 1017.06 1016.94 1016.86 1016.74 1016.66 1016.58 1016.42 1016.30 1016.18 1016.10 1015.98 1015.82 1015.66 1015.54 1015.42 1015.26 1015.10 1014.94 1014.82
1019.42 1019.42 1019.42 1019.42 1019.42 1019.34 1019.30 1019.30 1019.34 1019.42 1019.42 1019.42 1019.46 1019.46 1019.42 1019.46 1019.50 1019.54 1019.54 1019.46 1019.38 1019.34 1019.38 1019.38 1019.26 1019.18 1019.10 1019.02 1018.98 1018.90 1018.82 1018.70 1018.62 1018.50 1018.42 1018.30 1018.26 1018.18 1018.14 1018.02 1017.98 1017.90 1017.86 1017.74 1017.66 1017.58 1017.46 1017.38 1017.26 1017.18 1017.06 1016.98 1016.86 1016.82 1016.70 1016.58 1016.46 1016.38 1016.30 1016.18 1016.06 1015.94 1015.86 1015.70 1015.58 1015.42 1015.30 1015.14 1014.98
1019.42 1019.42 1019.38 1019.38 1019.38 1019.30 1019.30 1019.34 1019.38 1019.42 1019.42 1019.46 1019.50 1019.50 1019.50 1019.54 1019.58 1019.58 1019.54 1019.46 1019.42 1019.42 1019.42 1019.42 1019.34 1019.26 1019.18 1019.14 1019.02 1018.98 1018.86 1018.78 1018.70 1018.58 1018.50 1018.42 1018.34 1018.30 1018.22 1018.14 1018.02 1017.98 1017.90 1017.86 1017.74 1017.66 1017.58 1017.42 1017.30 1017.22 1017.10 1016.98 1016.86 1016.82 1016.70 1016.62 1016.50 1016.42 1016.30 1016.22 1016.14 1016.02 1015.94 1015.86 1015.70 1015.58 1015.46 1015.30 1015.14
1019.42 1019.38 1019.34 1019.34 1019.30 1019.30 1019.30 1019.34 1019.42 1019.42 1019.42 1019.50 1019.54 1019.58 1019.58 1019.58 1019.62 1019.62 1019.58 1019.58 1019.54 1019.50 1019.46 1019.42 1019.34 1019.26 1019.26 1019.18 1019.14 1019.02 1018.94 1018.86 1018.78 1018.66 1018.58 1018.50 1018.42 1018.38 1018.30 1018.22 1018.14 1018.06 1017.98 1017.94 1017.86 1017.74 1017.62 1017.50 1017.38 1017.26 1017.10 1016.98 1016.86 1016.78 1016.70 1016.62 1016.54 1016.42 1016.30 1016.22 1016.14 1016.06 1015.98 1015.90 1015.86 1015.70 1015.58 1015.42 1015.26
1019.34 1019.34 1019.34 1019.34 1019.30 1019.30 1019.34 1019.38 1019.42 1019.46 1019.50 1019.50 1019.58 1019.62 1019.62 1019.66 1019.70 1019.70 1019.70 1019.66 1019.62 1019.58 1019.50 1019.42 1019.38 1019.34 1019.26 1019.22 1019.18 1019.10 1018.98 1018.90 1018.86 1018.74 1018.66 1018.58 1018.58 1018.46 1018.42 1018.34 1018.30 1018.18 1018.10 1018.02 1017.90 1017.82 1017.70 1017.58 1017.46 1017.30 1017.14 1016.98 1016.86 1016.74 1016.66 1016.58 1016.46 1016.38 1016.30 1016.22 1016.14 1016.06 1015.98 1015.94 1015.86 1015.78 1015.70 1015.58 1015.42
1019.34 1019.34 1019.34 1019.34 1019.34 1019.38 1019.42 1019.46 1019.50 1019.54 1019.58 1019.58 1019.62 1019.66 1019.66 1019.70 1019.74 1019.74 1019.74 1019.70 1019.66 1019.58 1019.54 1019.50 1019.42 1019.34 1019.26 1019.22 1019.18 1019.10 1018.98 1018.94 1018.86 1018.78 1018.70 1018.66 1018.62 1018.58 1018.46 1018.42 1018.38 1018.30 1018.18 1018.10 1017.98 1017.86 1017.78 1017.70 1017.58 1017.42 1017.26 1017.10 1016.94 1016.78 1016.66 1016.54 1016.42 1016.34 1016.26 1016.18 1016.14 1016.02 1015.98 1015.90 1015.86 1015.78 1015.70 1015.62 1015.50
1019.38 1019.38 1019.38 1019.38 1019.38 1019.42 1019.50 1019.54 1019.58 1019.58 1019.62 1019.66 1019.70 1019.70 1019.70 1019.74 1019.78 1019.78 1019.78 1019.78 1019.74 1019.66 1019.58 1019.54 1019.42 1019.34 1019.26 1019.18 1019.18 1019.10 1018.98 1018.94 1018.86 1018.82 1018.74 1018.70 1018.66 1018.62 1018.58 1018.50 1018.42 1018.38 1018.30 1018.18 1018.06 1017.98 1017.86 1017.74 1017.62 1017.50 1017.34 1017.14 1016.98 1016.86 1016.70 1016.58 1016.46 1016.34 1016.26 1016.14 1016.06 1015.98 1015.90 1015.86 1015.74 1015.70 1015.66 1015.58 1015.50
1019.38 1019.42 1019.42 1019.42 1019.42 1019.50 1019.58 1019.58 1019.62 1019.66 1019.70 1019.74 1019.74 1019.74 1019.78 1019.82 1019.86 1019.86 1019.82 1019.82 1019.78 1019.70 1019.58 1019.54 1019.42 1019.34 1019.26 1019.18 1019.14 1019.10 1019.02 1018.98 1018.86 1018.86 1018.82 1018.74 1018.70 1018.66 1018.58 1018.54 1018.50 1018.42 1018.34 1018.26 1018.14 1018.02 1017.90 1017.78 1017.66 1017.54 1017.38 1017.18 1017.06 1016.90 1016.74 1016.62 1016.54 1016.42 1016.30 1016.18 1016.06 1015.94 1015.86 1015.78 1015.70 1015.66 1015.58 1015.50 1015.42
1019.38 1019.38 1019.42 1019.42 1019.46 1019.54 1019.58 1019.62 1019.66 1019.70 1019.74 1019.82 1019.82 1019.82 1019.82 1019.86 1019.86 1019.86 1019.86 1019.82 1019.78 1019.70 1019.62 1019.54 1019.38 1019.26 1019.26 1019.18 1019.14 1019.10 1019.02 1018.94 1018.86 1018.86 1018.82 1018.78 1018.70 1018.70 1018.62 1018.58 1018.46 1018.42 1018.38 1018.30 1018.14 1018.06 1017.98 1017.82 1017.66 1017.54 1017.38 1017.18 1017.06 1016.90 1016.78 1016.70 1016.58 1016.42 1016.34 1016.22 1016.10 1015.98 1015.86 1015.78 1015.70 1015.62 1015.54 1015.46 1015.38
1019.38 1019.38 1019.42 1019.42 1019.54 1019.58 1019.66 1019.70 1019.70 1019.78 1019.82 1019.86 1019.86 1019.86 1019.86 1019.86 1019.86 1019.86 1019.82 1019.78 1019.78 1019.70 1019.62 1019.50 1019.42 1019.26 1019.22 1019.18 1019.14 1019.10 1019.02 1018.94 1018.86 1018.86 1018.78 1018.74 1018.70 1018.66 1018.58 1018.58 1018.50 1018.42 1018.34 1018.30 1018.14 1018.06 1017.94 1017.82 1017.66 1017.50 1017.30 1017.14 1016.98 1016.86 1016.74 1016.66 1016.54 1016.42 1016.34 1016.26 1016.14 1016.02 1015.94 1015.86 1015.74 1015.62 1015.54 1015.42 1015.34
1019.34 1019.38 1019.42 1019.46 1019.58 1019.62 1019.70 1019.74 1019.82 1019.86 1019.86 1019.90 1019.86 1019.86 1019.86 1019.82 1019.82 1019.86 1019.86 1019.82 1019.74 1019.66 1019.58 1019.46 1019.38 1019.26 1019.22 1019.14 1019.10 1019.06 1019.02 1018.94 1018.90 1018.86 1018.78 1018.74 1018.70 1018.66 1018.58 1018.54 1018.46 1018.42 1018.30 1018.26 1018.14 1017.98 1017.90 1017.78 1017.58 1017.42 1017.26 1017.10 1016.98 1016.82 1016.70 1016.58 1016.50 1016.42 1016.30 1016.22 1016.14 1016.06 1015.98 1015.86 1015.78 1015.66 1015.54 1015.42 1015.26
1019.30 1019.38 1019.42 1019.50 1019.58 1019.70 1019.74 1019.82 1019.86 1019.86 1019.90 1019.86 1019.86 1019.86 1019.82 1019.82 1019.82 1019.82 1019.82 1019.82 1019.70 1019.62 1019.50 1019.38 1019.34 1019.26 1019.22 1019.14 1019.14 1019.10 1019.02 1018.98 1018.90 1018.86 1018.82 1018.74 1018.70 1018.66 1018.58 1018.54 1018.42 1018.34 1018.30 1018.14 1018.06 1017.94 1017.86 1017.70 1017.54 1017.38 1017.22 1017.06 1016.90 1016.82 1016.70 1016.54 1016.42 1016.30 1016.18 1016.10 1016.02 1015.98 1015.94 1015.86 1015.78 1015.70 1015.58 1015.42 1015.30
1019.26 1019.38 1019.46 1019.58 1019.66 1019.70 1019.74 1019.82 1019.86 1019.86 1019.86 1019.82 1019.78 1019.78 1019.78 1019.74 1019.78 1019.78 1019.78 1019.74 1019.66 1019.58 1019.46 1019.38 1019.30 1019.26 1019.22 1019.18 1019.14 1019.10 1019.02 1018.94 1018.90 1018.86 1018.82 1018.78 1018.70 1018.66 1018.58 1018.46 1018.38 1018.30 1018.14 1018.06 1017.98 1017.90 1017.78 1017.66 1017.46 1017.30 1017.18 1017.02 1016.86 1016.74 1016.62 1016.50 1016.38 1016.22 1016.10 1015.98 1015.90 1015.86 1015.82 1015.74 1015.70 1015.62 1015.58 1015.42 1015.30
1019.30 1019.38 1019.46 1019.54 1019.66 1019.70 1019.74 1019.78 1019.78 1019.78 1019.70 1019.70 1019.70 1019.70 1019.70 1019.70 1019.70 1019.70 1019.70 1019.62 1019.54 1019.46 1019.42 1019.34 1019.26 1019.22 1019.14 1019.14 1019.10 1019.06 1018.98 1018.86 1018.82 1018.78 1018.74 1018.70 1018.66 1018.58 1018.50 1018.42 1018.30 1018.22 1018.10 1018.02 1017.98 1017.94 1017.86 1017.70 1017.50 1017.26 1017.14 1017.02 1016.86 1016.70 1016.58 1016.42 1016.30 1016.18 1016.02 1015.90 1015.78 1015.70 1015.62 1015.58 1015.58 1015.50 1015.42 1015.38 1015.26
1019.30 1019.38 1019.42 1019.54 1019.62 1019.70 1019.70 1019.70 1019.70 1019.66 1019.66 1019.66 1019.70 1019.70 1019.70 1019.70 1019.66 1019.62 1019.58 1019.54 1019.42 1019.34 1019.30 1019.26 1019.22 1019.14 1019.06 1018.98 1018.98 1018.94 1018.86 1018.82 1018.78 1018.70 1018.66 1018.58 1018.58 1018.54 1018.42 1018.34 1018.26 1018.14 1018.02 1017.98 1017.98 1017.94 1017.86 1017.70 1017.58 1017.38 1017.18 1017.02 1016.86 1016.70 1016.54 1016.42 1016.26 1016.14 1015.98 1015.86 1015.74 1015.62 1015.50 1015.42 1015.34 1015.30 1015.26 1015.22 1015.14
1019.26 1019.34 1019.42 1019.50 1019.58 1019.62 1019.62 1019.62 1019.58 1019.58 1019.62 1019.62 1019.66 1019.66 1019.62 1019.62 1019.58 1019.54 1019.46 1019.38 1019.30 1019.26 1019.22 1019.14 1019.06 1018.98 1018.94 1018.86 1018.82 1018.78 1018.74 1018.70 1018.70 1018.66 1018.58 1018.54 1018.46 1018.42 1018.34 1018.26 1018.14 1018.06 1017.98 1017.94 1017.90 1017.82 1017.70 1017.58 1017.54 1017.42 1017.26 1017.14 1016.94 1016.70 1016.54 1016.34 1016.18 1016.06 1015.98 1015.86 1015.70 1015.58 1015.42 1015.26 1015.14 1015.10 1015.02 1014.98 1014.98
1019.22 1019.26 1019.38 1019.46 1019.54 1019.58 1019.58 1019.58 1019.58 1019.58 1019.58 1019.58 1019.58 1019.58 1019.54 1019.54 1019.50 1019.42 1019.34 1019.26 1019.18 1019.14 1019.02 1018.94 1018.86 1018.82 1018.74 1018.70 1018.66 1018.66 1018.66 1018.62 1018.58 1018.58 1018.54 1018.50 1018.42 1018.30 1018.26 1018.14 1018.06 1017.98 1017.90 1017.86 1017.78 1017.70 1017.58 1017.46 1017.42 1017.34 1017.26 1017.14 1016.98 1016.78 1016.58 1016.38 1016.18 1016.02 1015.90 1015.78 1015.66 1015.50 1015.38 1015.22 1015.06 1014.94 1014.86 1014.78 1014.78
1019.18 1019.26 1019.34 1019.42 1019.42 1019.42 1019.46 1019.50 1019.50 1019.50 1019.50 1019.50 1019.50 1019.50 1019.46 1019.42 1019.38 1019.26 1019.18 1019.14 1019.06 1018.98 1018.86 1018.74 1018.70 1018.66 1018.58 1018.58 1018.58 1018.58 1018.58 1018.58 1018.54 1018.46 1018.42 1018.38 1018.34 1018.26 1018.14 1018.02 1017.98 1017.86 1017.78 1017.70 1017.66 1017.58 1017.42 1017.34 1017.26 1017.22 1017.14 1017.06 1016.94 1016.78 1016.58 1016.38 1016.18 1016.02 1015.86 1015.70 1015.54 1015.42 1015.26 1015.14 1014.98 1014.86 1014.74 1014.66 1014.58
1019.14 1019.26 1019.30 1019.38 1019.38 1019.38 1019.42 1019.42 1019.42 1019.42 1019.42 1019.42 1019.42 1019.42 1019.38 1019.34 1019.26 1019.14 1019.06 1018.98 1018.86 1018.74 1018.66 1018.58 1018.58 1018.58 1018.54 1018.54 1018.54 1018.50 1018.46 1018.42 1018.42 1018.38 1018.30 1018.26 1018.18 1018.10 1017.98 1017.90 1017.82 1017.70 1017.62 1017.58 1017.50 1017.42 1017.30 1017.26 1017.14 1017.06 1016.98 1016.98 1016.86 1016.70 1016.50 1016.34 1016.14 1015.98 1015.82 1015.62 1015.42 1015.30 1015.14 1015.02 1014.90 1014.78 1014.66 1014.58 1014.46
1019.14 1019.22 1019.26 1019.26 1019.26 1019.30 1019.30 1019.34 1019.34 1019.34 1019.38 1019.42 1019.38 1019.34 1019.26 1019.18 1019.10 1018.98 1018.94 1018.86 1018.70 1018.62 1018.58 1018.58 1018.58 1018.54 1018.50 1018.50 1018.46 1018.42 1018.34 1018.30 1018.30 1018.26 1018.18 1018.14 1018.02 1017.94 1017.86 1017.74 1017.66 1017.58 1017.46 1017.42 1017.30 1017.26 1017.18 1017.10 1016.98 1016.94 1016.86 1016.82 1016.74 1016.66 1016.46 1016.30 1016.10 1015.94 1015.74 1015.58 1015.38 1015.26 1015.10 1014.98 1014.86 1014.74 1014.58 1014.50 1014.38
1019.14 1019.22 1019.26 1019.26 1019.22 1019.22 1019.26 1019.26 1019.30 1019.34 1019.34 1019.34 1019.26 1019.22 1019.14 1019.02 1018.94 1018.86 1018.78 1018.70 1018.62 1018.58 1018.58 1018.58 1018.54 1018.50 1018.46 1018.42 1018.38 1018.30 1018.26 1018.18 1018.14 1018.14 1018.06 1017.98 1017.86 1017.78 1017.66 1017.58 1017.46 1017.38 1017.30 1017.22 1017.14 1017.06 1016.98 1016.86 1016.78 1016.74 1016.70 1016.62 1016.58 1016.46 1016.30 1016.14 1015.98 1015.86 1015.62 1015.42 1015.26 1015.14 1015.02 1014.94 1014.78 1014.66 1014.58 1014.46 1014.34
1019.14 1019.14 1019.18 1019.18 1019.14 1019.14 1019.18 1019.26 1019.26 1019.26 1019.26 1019.18 1019.14 1019.10 1018.98 1018.90 1018.82 1018.70 1018.66 1018.62 1018.58 1018.50 1018.46 1018.42 1018.42 1018.42 1018.38 1018.30 1018.26 1018.18 1018.14 1018.06 1018.06 1018.02 1017.94 1017.86 1017.74 1017.62 1017.50 1017.42 1017.26 1017.18 1017.10 1017.02 1016.98 1016.86 1016.78 1016.66 1016.58 1016.54 1016.50 1016.46 1016.42 1016.30 1016.14 1015.98 1015.82 1015.66 1015.46 1015.26 1015.14 1015.02 1014.94 1014.82 1014.70 1014.58 1014.46 1014.34 1014.30
1019.06 1019.10 1019.10 1019.10 1019.10 1019.10 1019.14 1019.14 1019.18 1019.18 1019.14 1019.10 1019.02 1018.98 1018.86 1018.78 1018.70 1018.62 1018.58 1018.54 1018.50 1018.42 1018.42 1018.42 1018.38 1018.34 1018.30 1018.22 1018.14 1018.10 1018.06 1017.98 1017.98 1017.90 1017.82 1017.74 1017.62 1017.54 1017.42 1017.26 1017.14 1017.02 1016.94 1016.86 1016.78 1016.66 1016.58 1016.46 1016.38 1016.30 1016.26 1016.22 1016.14 1016.06 1015.90 1015.70 1015.58 1015.42 1015.26 1015.06 1014.94 1014.86 1014.74 1014.66 1014.58 1014.46 1014.34 1014.26 1014.18
1018.98 1018.98 1018.98 1018.98 1018.98 1019.02 1019.02 1019.06 1019.10 1019.10 1019.02 1018.98 1018.90 1018.82 1018.74 1018.66 1018.58 1018.50 1018.46 1018.42 1018.42 1018.42 1018.38 1018.34 1018.34 1018.30 1018.26 1018.18 1018.14 1018.02 1017.98 1017.90 1017.86 1017.78 1017.70 1017.58 1017.50 1017.42 1017.26 1017.14 1017.02 1016.90 1016.82 1016.70 1016.58 1016.46 1016.34 1016.22 1016.14 1016.10 1016.02 1015.98 1015.94 1015.78 1015.58 1015.42 1015.30 1015.14 1014.98 1014.82 1014.70 1014.62 1014.58 1014.46 1014.42 1014.30 1014.26 1014.14 1014.10
1018.86 1018.86 1018.86 1018.90 1018.90 1018.90 1018.94 1018.98 1018.98 1018.94 1018.86 1018.82 1018.70 1018.62 1018.58 1018.46 1018.42 1018.38 1018.38 1018.38 1018.42 1018.38 1018.34 1018.30 1018.26 1018.22 1018.14 1018.06 1018.02 1017.98 1017.86 1017.82 1017.70 1017.62 1017.58 1017.46 1017.38 1017.26 1017.14 1016.98 1016.86 1016.70 1016.62 1016.54 1016.42 1016.30 1016.14 1016.06 1015.98 1015.90 1015.86 1015.78 1015.70 1015.54 1015.34 1015.18 1015.02 1014.86 1014.70 1014.58 1014.42 1014.34 1014.30 1014.26 1014.22 1014.14 1014.02 1013.98 1013.86
1018.74 1018.74 1018.74 1018.78 1018.78 1018.78 1018.82 1018.82 1018.82 1018.74 1018.70 1018.62 1018.54 1018.46 1018.42 1018.34 1018.30 1018.30 1018.34 1018.34 1018.30 1018.30 1018.22 1018.14 1018.10 1018.02 1017.98 1017.86 1017.86 1017.78 1017.70 1017.66 1017.54 1017.46 1017.42 1017.34 1017.26 1017.14 1016.98 1016.78 1016.58 1016.50 1016.42 1016.34 1016.22 1016.14 1015.98 1015.86 1015.78 1015.70 1015.66 1015.58 1015.42 1015.26 1015.14 1014.98 1014.78 1014.58 1014.42 1014.30 1014.18 1014.06 1013.98 1013.98 1013.94 1013.86 1013.78 1013.70 1013.62
1018.62 1018.66 1018.66 1018.62 1018.62 1018.66 1018.66 1018.66 1018.66 1018.58 1018.50 1018.42 1018.34 1018.30 1018.30 1018.26 1018.26 1018.26 1018.26 1018.30 1018.22 1018.14 1018.10 1017.98 1017.94 1017.86 1017.82 1017.74 1017.70 1017.62 1017.54 1017.50 1017.42 1017.30 1017.26 1017.14 1017.10 1016.98 1016.78 1016.58 1016.38 1016.26 1016.18 1016.10 1016.02 1015.90 1015.82 1015.70 1015.58 1015.54 1015.46 1015.38 1015.22 1015.06 1014.90 1014.74 1014.54 1014.38 1014.22 1014.06 1013.90 1013.82 1013.74 1013.70 1013.62 1013.58 1013.50 1013.42 1013.34
1018.54 1018.54 1018.54 1018.54 1018.54 1018.54 1018.50 1018.50 1018.46 1018.42 1018.34 1018.30 1018.22 1018.18 1018.18 1018.22 1018.22 1018.18 1018.18 1018.22 1018.14 1018.06 1017.98 1017.86 1017.82 1017.74 1017.70 1017.66 1017.58 1017.50 1017.42 1017.38 1017.30 1017.22 1017.10 1016.98 1016.86 1016.78 1016.58 1016.34 1016.14 1015.98 1015.94 1015.86 1015.82 1015.70 1015.58 1015.46 1015.34 1015.30 1015.26 1015.22 1015.06 1014.90 1014.74 1014.58 1014.34 1014.14 1014.02 1013.86 1013.70 1013.58 1013.50 1013.46 1013.38 1013.26 1013.14 1013.10 1013.06
1018.42 1018.46 1018.42 1018.42 1018.42 1018.42 1018.42 1018.34 1018.30 1018.26 1018.22 1018.18 1018.14 1018.14 1018.14 1018.14 1018.14 1018.14 1018.14 1018.18 1018.10 1017.98 1017.86 1017.78 1017.70 1017.62 1017.58 1017.54 1017.46 1017.34 1017.26 1017.18 1017.14 1017.02 1016.90 1016.74 1016.66 1016.58 1016.42 1016.18 1015.90 1015.74 1015.70 1015.66 1015.58 1015.42 1015.30 1015.22 1015.14 1015.10 1015.06 1015.02 1014.86 1014.74 1014.58 1014.38 1014.18 1013.98 1013.82 1013.70 1013.54 1013.38 1013.26 1013.22 1013.14 1012.98 1012.86 1012.78 1012.74
1018.34 1018.38 1018.38 1018.34 1018.34 1018.30 1018.30 1018.22 1018.18 1018.14 1018.14 1018.14 1018.14 1018.14 1018.14 1018.14 1018.14 1018.14 1018.10 1018.06 1017.98 1017.86 1017.78 1017.66 1017.58 1017.50 1017.46 1017.42 1017.30 1017.14 1017.02 1016.94 1016.86 1016.78 1016.70 1016.58 1016.42 1016.30 1016.18 1015.98 1015.74 1015.58 1015.42 1015.38 1015.26 1015.18 1015.06 1014.98 1014.86 1014.86 1014.86 1014.82 1014.70 1014.58 1014.42 1014.18 1013.98 1013.78 1013.62 1013.54 1013.42 1013.26 1013.10 1012.98 1012.90 1012.78 1012.62 1012.46 1012.42
1018.26 1018.30 1018.30 1018.26 1018.26 1018.22 1018.18 1018.14 1018.06 1018.06 1018.06 1018.10 1018.10 1018.10 1018.10 1018.10 1018.06 1018.02 1017.98 1017.90 1017.86 1017.74 1017.66 1017.54 1017.42 1017.38 1017.30 1017.26 1017.14 1016.98 1016.86 1016.70 1016.58 1016.50 1016.42 1016.30 1016.14 1016.02 1015.94 1015.78 1015.58 1015.34 1015.14 1015.06 1014.98 1014.90 1014.78 1014.70 1014.62 1014.58 1014.58 1014.58 1014.50 1014.38 1014.22 1014.02 1013.82 1013.58 1013.42 1013.34 1013.26 1013.14 1012.98 1012.78 1012.70 1012.58 1012.42 1012.26 1012.14
Wind_Speed
4 4 4 4 4 4 4 4 4 4 3 3 4 4 4 4 4 4 4 5 4 4 5 5 5 6 7 9 9 9 10 10 11 11 11 12 12 12 12 12 13 13 13 13 13 12 11 11 9 7 7 7 8 8 8 8 9 9 9 9 8 8 9 10 11 11 12 12 9
5 5 5 4 4 4 3 3 3 3 3 3 3 3 4 4 4 4 4 5 4 4 4 4 5 6 7 9 9 9 9 10 11 11 11 12 12 12 12 11 12 13 13 13 13 11 10 11 9 8 7 7 8 8 9 9 9 9 10 11 8 7 8 9 10 10 11 10 9
5 5 5 4 4 4 3 3 3 4 4 3 3 3 3 4 4 4 4 4 4 4 4 4 5 6 7 8 8 8 9 10 10 11 11 11 12 12 12 11 12 12 12 12 12 11 10 11 9 8 7 7 9 9 9 10 10 10 10 11 8 7 7 7 8 8 8 8 9
5 5 5 5 5 5 4 3 4 4 4 3 3 3 3 3 3 3 3 4 4 5 5 5 5 5 6 7 8 8 9 10 10 10 10 11 12 12 12 12 12 12 11 11 12 12 11 11 8 7 8 9 10 10 9 9 10 9 8 8 8 7 7 7 7 7 7 7 8
5 5 5 5 6 5 5 4 4 4 4 3 3 3 3 3 3 3 3 4 4 5 5 6 5 5 6 7 8 9 9 10 10 10 10 10 11 12 12 13 12 11 11 11 11 11 11 10 7 7 7 8 8 9 10 11 11 9 8 7 7 7 7 7 7 7 6 7 7
5 5 5 5 5 5 4 4 4 4 4 3 4 4 4 3 3 3 4 4 4 5 6 6 5 6 6 8 8 9 9 9 9 9 10 10 10 11 12 12 12 11 11 11 11 11 10 9 7 6 7 7 7 9 11 12 11 10 9 8 7 7 7 8 7 7 7 8 9
5 5 5 5 5 5 4 4 4 4 4 4 5 5 5 4 4 5 5 4 4 5 5 5 6 6 7 8 8 8 9 9 9 9 10 10 10 11 11 11 12 12 11 11 11 10 9 8 7 6 6 6 6 9 11 12 11 10 10 9 8 7 8 8 7 7 8 10 11
5 5 5 5 5 5 5 4 4 4 4 4 5 5 6 5 5 5 5 5 5 5 5 4 6 7 7 7 8 8 8 9 9 9 9 10 10 11 11 11 11 12 11 11 11 10 9 7 6 6 6 6 6 7 10 12 12 11 10 10 9 8 8 8 7 8 9 11 11
5 5 5 5 5 5 5 5 5 5 5 5 5 5 5 5 5 5 5 5 4 4 4 5 6 7 7 8 8 8 8 8 8 9 9 9 10 10 10 10 11 11 11 10 10 10 9 7 7 6 6 6 6 7 9 11 11 11 10 9 9 9 9 9 9 10 10 10 11
5 5 5 5 5 5 5 5 5 5 5 5 5 5 5 5 5 5 4 4 4 4 5 5 6 7 7 8 8 7 7 7 7 8 9 9 10 10 10 10 11 11 10 10 10 9 9 7 7 7 7 6 7 8 9 10 11 11 10 8 9 10 11 10 11 11 11 10 11
5 4 4 4 4 4 4 5 5 5 5 5 5 5 5 6 5 5 4 3 4 4 5 5 6 6 7 7 7 7 7 7 7 8 8 9 10 10 10 10 10 10 10 10 9 8 7 7 7 8 8 8 7 8 9 10 10 10 10 8 9 10 11 12 11 11 10 11 11
5 4 4 4 4 4 4 4 4 4 5 5 5 5 5 5 5 5 4 4 5 5 5 5 5 6 6 5 6 6 6 7 7 8 8 9 10 10 10 10 11 11 10 10 9 8 7 8 8 9 10 9 7 7 8 10 10 10 10 10 10 10 10 11 11 10 9 10 11
4 4 4 4 4 4 4 4 4 4 4 5 5 5 5 5 5 5 5 5 5 4 4 4 5 5 5 5 6 6 6 7 7 8 8 9 9 10 10 10 11 11 10 10 9 9 8 9 10 10 10 10 8 8 8 9 9 9 9 10 10 10 10 10 10 10 10 11 10
4 4 4 4 4 4 4 4 4 4 4 5 5 4 4 4 4 4 4 5 5 4 4 4 4 4 5 5 5 6 6 6 7 8 8 8 9 9 9 9 10 10 10 9 9 9 10 10 10 11 11 11 10 10 9 9 9 9 9 9 9 9 9 9 10 10 10 11 10
4 4 4 4 4 4 4 4 3 3 4 4 4 4 4 4 4 4 4 4 4 4 4 4 4 4 5 5 5 6 6 6 7 7 8 8 8 9 9 9 9 9 9 9 9 9 10 10 10 10 11 11 11 11 11 10 10 9 9 9 9 9 9 9 9 9 9 10 10
4 4 4 4 4 4 4 3 3 3 3 4 4 3 3 3 3 3 4 4 4 4 4 4 4 4 4 5 5 5 5 6 6 7 7 7 8 8 8 8 9 9 9 9 9 9 9 10 9 10 10 11 11 11 11 11 11 11 10 10 10 9 9 9 9 9 9 9 9
4 4 4 4 4 4 4 3 3 3 3 3 3 3 3 3 3 3 3 3 3 3 4 4 4 4 4 4 4 5 5 5 6 6 6 7 7 7 8 8 8 8 9 9 9 9 9 9 9 9 9 10 10 10 11 11 11 11 11 11 11 10 10 10 9 9 9 9 9
4 4 4 4 4 4 4 3 3 3 3 3 3 2 2 2 2 2 2 3 3 3 4 4 4 4 4 4 4 4 4 5 5 6 6 6 7 7 7 8 8 8 8 8 8 9 9 9 9 9 9 9 9 9 10 10 10 11 11 12 12 11 11 11 10 10 9 9 9
4 4 4 4 4 4 3 3 3 2 2 2 2 2 2 2 2 2 2 3 3 3 4 4 4 4 4 5 5 4 4 5 6 6 6 6 7 7 7 7 8 8 8 8 8 8 9 9 9 9 9 9 9 9 9 9 9 10 10 11 11 11 12 12 11 11 10 10 10
4 4 4 4 3 3 2 2 2 2 1 1 1 1 1 1 2 2 2 3 3 3 4 4 4 4 4 5 5 5 5 5 6 6 7 7 7 7 8 8 8 8 8 8 8 8 8 9 9 9 9 9 10 10 10 10 10 10 10 9 10 10 11 12 12 12 12 11 11
4 4 3 3 2 2 2 1 1 1 1 0 1 1 1 1 2 2 3 3 3 4 4 4 4 4 5 5 5 5 5 5 6 6 7 7 7 8 8 8 8 8 7 7 8 8 9 9 9 9 10 10 10 10 10 10 10 10 10 9 9 10 10 11 12 12 12 12 12
4 3 3 2 2 1 1 1 0 0 0 0 0 1 1 1 2 2 3 3 4 4 3 3 4 4 4 5 5 5 5 5 5 6 6 7 7 7 8 8 8 8 8 8 8 8 9 10 10 10 11 10 11 11 11 11 11 11 11 10 10 10 10 10 11 11 12 12 12
4 3 2 2 1 1 1 0 0 1 1 1 1 1 1 2 2 3 3 3 3 3 3 3 3 3 4 4 4 5 5 5 5 6 6 6 7 7 8 7 8 8 8 7 7 8 9 10 10 11 11 11 12 12 12 12 11 11 11 12 12 11 11 10 10 10 11 11 11
3 2 2 1 1 1 1 1 1 1 1 1 1 1 1 2 2 3 3 4 3 3 3 3 3 3 3 3 3 4 4 5 6 6 6 7 7 7 7 7 7 7 7 6 7 8 9 9 10 10 11 11 11 12 12 12 12 12 12 12 12 12 12 11 11 11 11 11 11
2 2 1 1 1 1 1 1 1 1 1 1 1 1 2 2 3 3 3 4 3 3 3 3 3 3 3 3 3 3 4 5 6 7 7 7 7 7 7 7 6 6 6 6 8 10 12 11 11 10 10 11 11 11 12 12 12 12 12 12 13 13 12 12 12 11 11 11 10
2 2 1 1 1 1 1 1 1 1 1 1 2 2 2 3 3 3 4 4 3 3 3 2 2 2 3 3 3 4 5 5 6 6 7 7 8 8 8 7 6 6 6 7 10 12 14 15 14 13 11 10 11 11 11 11 12 13 13 13 13 13 13 13 13 12 12 11 10
2 2 1 1 1 1 1 1 1 1 1 2 2 2 3 3 3 4 4 3 3 3 2 2 2 3 3 3 4 5 5 6 6 6 7 7 8 9 9 7 6 6 7 9 12 14 16 16 16 15 14 11 11 11 11 11 12 13 13 13 12 13 13 13 13 13 13 12 11
2 2 1 1 1 1 1 1 1 1 2 2 2 3 3 4 4 4 4 3 3 3 2 2 3 3 3 4 5 6 6 7 6 6 7 7 8 9 9 8 7 8 9 12 14 16 17 17 17 16 15 13 11 10 11 11 11 12 12 12 12 12 13 13 13 13 13 13 12
2 2 1 2 2 1 1 2 2 2 2 2 2 3 4 4 4 4 4 3 4 4 4 3 3 3 4 5 6 6 7 7 6 6 7 8 9 9 9 9 9 10 12 15 16 17 17 17 17 17 16 15 11 9 9 9 10 10 10 10 11 12 12 12 12 12 13 13 13
2 2 2 2 2 2 1 1 1 2 2 2 3 3 4 4 4 4 3 4 4 4 4 4 4 4 5 6 6 6 7 7 7 7 8 9 9 10 10 11 10 11 13 15 17 17 17 18 17 17 17 17 14 11 9 9 10 10 10 10 11 12 13 13 14 14 14 13 13
2 2 2 2 2 2 1 1 1 2 2 3 3 4 4 4 4 3 3 4 4 4 5 5 5 6 6 7 7 7 7 8 8 8 8 9 10 11 12 12 12 13 14 16 17 18 18 18 18 18 18 17 14 12 10 10 11 11 11 11 12 13 14 14 14 14 15 15 14
3 2 2 2 2 2 1 1 2 2 3 3 4 4 4 4 4 3 4 4 4 5 5 6 6 7 7 8 8 8 9 9 9 9 9 10 11 12 13 13 13 13 14 17 18 19 19 19 19 19 19 18 15 13 12 12 12 12 12 13 14 15 15 13 13 14 15 16 15
3 3 3 2 2 2 2 2 2 2 3 3 4 4 4 4 4 4 4 4 4 5 6 6 7 7 8 8 9 9 9 9 10 10 11 11 12 13 13 13 12 13 15 18 19 20 21 21 20 20 19 19 16 13 12 12 11 11 11 12 13 14 15 15 15 15 15 16 15
4 3 3 3 2 2 2 2 2 3 3 4 4 3 3 4 4 4 4 4 4 5 6 6 7 7 8 8 9 9 9 9 10 10 11 12 12 13 14 13 11 12 15 19 20 21 21 21 21 21 20 19 15 13 12 13 12 11 12 13 14 14 14 15 15 16 16 16 15
4 3 3 3 2 2 2 2 3 3 3 3 3 3 3 4 4 4 5 5 5 6 6 7 7 8 8 8 9 9 10 10 10 11 11 12 13 14 14 14 13 15 18 20 21 22 22 22 21 21 20 17 13 12 12 13 13 13 14 14 15 15 15 15 15 15 15 16 15
4 3 3 3 2 2 2 2 3 3 3 3 3 4 4 5 5 5 5 6 6 7 7 8 8 8 9 9 9 10 10 11 11 12 12 12 13 14 15 16 16 17 19 21 22 22 22 22 21 21 19 16 12 11 11 11 11 12 14 15 15 15 15 15 15 14 15 14 15
4 4 3 3 3 2 2 3 3 3 3 4 4 4 5 5 5 5 5 6 7 7 8 9 9 9 10 10 10 10 11 11 12 13 13 13 13 14 15 16 17 18 19 20 21 22 22 22 22 21 18 14 12 11 11 11 10 11 13 14 14 15 15 14 13 14 14 14 14
4 4 3 3 3 2 2 3 3 3 4 4 5 5 5 6 6 5 6 6 7 8 9 9 10 10 10 11 11 12 12 12 13 13 14 14 14 15 16 17 17 17 18 19 21 22 22 22 22 21 18 14 13 12 11 10 11 11 12 12 13 13 13 12 11 12 13 14 15
5 4 4 3 3 3 3 3 3 3 4 5 5 6 6 6 6 6 6 6 7 8 9 10 10 11 11 12 12 12 13 13 14 14 14 14 15 15 16 17 18 18 18 20 21 22 23 23 22 21 19 15 13 11 10 10 11 12 12 12 12 12 13 12 11 11 12 14 16
4 4 4 3 3 3 3 3 3 3 4 4 5 6 6 6 6 6 7 7 8 8 9 10 11 11 12 12 12 13 14 14 14 14 15 15 15 16 17 17 18 18 19 20 22 23 23 23 22 22 19 15 12 11 10 10 11 12 12 11 11 11 11 11 10 10 11 13 14
4 4 4 4 3 3 2 3 3 4 4 5 5 6 6 6 7 7 7 7 8 9 9 9 11 12 12 12 12 13 14 15 15 15 15 16 16 16 17 17 18 18 19 20 21 22 23 22 22 21 19 15 12 10 10 9 10 12 12 12 11 10 10 11 10 10 11 12 12
Wind_Direction
73 72 71 70 69 70 70 70 65 59 53 46 42 38 35 38 38 36 31 26 24 22 21 21 16 12 9 10 13 14 15 17 19 21 22 23 22 19 16 16 15 13 10 8 7 7 9 11 13 16 18 18 16 16 16 13 7 11 19 23 20 17 16 17 17 16 16 16 12
79 78 78 79 78 77 75 73 69 64 59 54 48 43 40 40 41 38 34 29 25 22 20 19 15 11 10 12 15 17 18 18 19 21 23 23 22 21 19 18 17 16 13 10 8 7 7 8 11 13 14 15 15 14 12 10 6 8 14 20 20 17 15 16 15 14 14 15 12
87 85 83 82 80 79 77 74 71 68 65 61 54 49 46 45 44 40 37 33 26 24 21 17 12 10 10 12 16 19 20 20 20 21 23 22 21 21 21 19 19 19 17 14 11 8 7 6 9 11 12 12 13 12 9 5 5 7 11 16 17 16 14 15 11 11 11 13 11
94 91 87 82 79 78 76 74 73 70 68 64 61 56 53 48 46 42 39 36 31 28 23 16 10 8 8 11 16 20 22 22 22 23 24 23 21 21 21 20 19 19 19 17 13 10 7 7 10 11 10 11 13 12 7 0 2 5 9 12 15 14 13 12 10 9 9 10 10
98 94 91 89 87 84 80 76 74 72 69 65 63 61 57 52 49 45 41 37 33 29 23 18 13 8 8 10 16 19 22 23 23 23 23 23 22 21 20 21 20 18 18 18 15 12 10 8 12 13 11 9 13 11 5 359 0 2 6 8 14 14 12 10 8 8 7 6 7
104 100 97 95 94 92 89 84 79 76 73 68 65 62 58 52 47 44 42 40 35 29 24 20 15 12 11 13 16 18 20 20 22 22 22 22 21 21 21 21 20 18 17 17 15 13 12 11 14 14 11 8 12 10 6 1 360 1 3 5 10 11 11 10 6 4 4 6 6
105 104 102 99 98 97 96 96 91 86 80 74 67 64 60 54 49 46 45 42 34 27 22 19 15 14 15 15 16 17 17 17 19 20 20 20 19 19 20 20 19 18 18 17 16 14 13 14 17 15 11 8 10 9 6 3 1 1 1 4 5 6 6 7 3 1 2 4 6
107 105 104 103 101 100 99 99 96 91 84 76 70 66 63 58 50 46 44 41 34 26 20 18 16 17 18 19 17 16 15 15 16 17 18 18 17 17 18 18 18 17 17 16 16 15 13 16 18 15 11 8 9 8 6 3 3 2 2 3 3 1 1 2 359 359 359 1 4
114 112 111 110 107 104 102 99 95 90 86 82 76 70 65 60 52 47 42 39 32 26 21 19 17 18 20 21 19 17 15 13 13 14 15 16 15 15 14 15 15 14 14 14 15 15 14 17 18 14 10 7 8 6 4 3 4 4 3 2 1 359 358 358 357 357 357 358 360
123 121 119 115 112 110 108 105 97 91 87 83 77 71 66 60 53 48 43 37 31 29 26 21 18 18 20 21 20 18 15 13 12 13 14 15 14 14 13 13 12 11 11 10 12 12 14 16 15 12 8 6 7 5 4 3 4 4 4 2 358 356 356 357 356 356 356 356 355
123 120 117 114 115 115 115 108 97 89 83 79 74 69 64 58 51 46 41 33 36 35 31 23 20 21 21 21 19 17 15 13 12 13 15 15 14 13 12 11 10 9 8 7 8 8 9 10 8 6 4 3 4 4 3 2 3 3 2 360 356 355 355 356 355 355 354 353 352
122 119 115 113 116 116 112 102 94 86 79 74 69 64 59 55 48 41 35 31 36 36 32 24 23 23 23 21 18 16 15 15 14 15 16 16 14 13 11 11 9 8 7 6 6 5 4 3 0 359 359 360 0 360 359 359 359 359 359 357 356 355 354 354 353 352 351 350 349
121 118 114 112 111 107 101 94 89 82 77 72 66 61 55 51 43 35 30 31 31 30 26 22 24 24 24 21 17 16 15 16 16 17 16 16 14 12 10 9 8 6 5 4 3 2 360 358 356 355 354 354 354 353 353 354 355 355 355 354 354 353 352 350 349 348 347 347 346
117 112 108 105 103 98 94 90 86 81 76 72 66 60 54 50 39 31 26 28 24 22 20 18 21 24 22 20 18 16 15 16 17 17 17 16 13 11 9 7 5 4 2 0 359 359 357 355 353 351 349 348 347 347 348 349 350 350 350 349 349 348 347 346 345 344 344 343 342
113 107 104 101 98 95 92 89 86 81 77 73 65 59 53 49 37 27 21 22 17 15 15 15 16 18 19 18 17 15 15 17 16 16 15 14 11 9 6 4 2 1 359 356 355 355 355 352 350 347 345 343 343 343 343 344 344 345 344 344 343 342 341 340 341 341 340 339 338
116 110 105 103 100 99 97 93 88 82 76 72 64 58 53 47 37 26 19 13 9 8 10 9 9 9 12 14 14 12 12 15 15 14 13 11 7 4 2 360 358 356 354 352 350 350 350 349 346 343 341 339 339 339 340 340 340 340 340 339 338 337 336 335 336 336 335 334 333
124 118 113 110 107 105 101 98 93 86 78 71 63 57 51 44 32 23 14 5 359 358 359 0 1 3 5 8 9 8 8 10 10 10 8 5 1 357 356 354 352 350 348 346 345 344 344 342 340 338 336 335 335 335 336 337 337 336 336 335 335 334 334 333 333 331 330 329 328
136 130 125 120 116 111 107 103 97 88 78 71 61 53 46 38 22 10 1 355 349 346 346 348 353 358 1 3 3 3 3 2 3 3 1 358 354 351 349 347 346 344 342 341 340 339 338 336 334 332 331 330 330 331 332 333 332 332 332 331 331 331 331 332 331 330 327 326 323
148 142 137 131 124 117 113 108 99 89 79 68 56 46 37 26 8 352 342 341 340 336 335 338 346 353 358 359 359 359 358 357 357 356 354 352 349 347 344 342 341 339 337 335 335 334 333 331 330 328 327 326 326 327 327 328 327 327 327 327 327 328 328 329 328 327 325 323 320
156 150 144 136 130 123 117 108 96 85 74 62 48 34 20 10 350 337 331 330 327 324 324 330 340 348 352 354 356 356 354 353 352 351 349 347 346 343 341 339 337 335 334 332 331 331 330 329 327 326 326 325 325 325 325 324 322 322 321 321 322 323 324 324 324 324 323 321 320
161 154 145 136 133 128 121 107 94 79 55 29 15 8 358 347 333 325 320 316 313 312 315 325 337 344 347 349 352 352 350 349 348 346 344 343 341 340 338 335 334 332 331 330 331 331 330 328 327 327 326 326 325 325 324 322 320 318 316 315 315 316 317 318 318 319 319 319 318
161 153 144 137 136 133 133 129 129 252 287 299 331 336 334 327 317 310 305 300 298 302 310 322 333 340 342 343 345 344 343 342 341 341 339 338 336 335 334 332 331 329 329 329 331 331 331 329 329 328 328 326 326 324 322 320 318 316 314 312 311 311 311 311 311 312 313 314 314
158 150 143 142 145 158 179 185 218 248 261 274 301 315 315 311 302 296 290 286 288 295 306 316 326 330 332 332 334 334 334 334 333 333 333 333 331 331 330 328 327 326 326 327 330 331 331 329 328 328 327 326 324 322 320 318 316 314 313 312 311 309 308 306 305 305 305 306 307
154 150 148 147 157 183 212 226 238 242 253 286 309 311 305 298 291 285 280 278 280 287 296 304 313 317 318 319 323 326 329 329 329 329 329 330 329 328 327 324 322 321 321 322 325 327 326 326 326 326 325 324 322 320 318 316 315 313 312 311 310 308 307 304 302 300 299 299 300
153 153 156 160 183 209 226 230 241 258 283 315 311 302 294 287 282 280 277 277 279 285 291 297 304 310 314 318 325 328 329 328 328 328 328 328 328 327 325 322 320 318 317 316 316 317 318 319 320 321 321 320 318 317 315 313 312 311 310 309 308 307 305 303 301 299 297 295 294
157 162 172 179 210 226 233 240 256 276 294 300 295 291 287 285 279 277 278 281 287 292 296 300 311 321 326 330 335 335 333 331 329 327 326 325 325 324 323 320 318 315 313 311 311 312 314 315 316 317 317 316 315 314 312 310 310 309 308 306 304 303 302 302 301 299 297 295 293
164 169 175 188 217 227 234 243 257 267 276 281 286 288 288 286 282 281 282 289 297 301 305 316 335 338 334 335 338 337 334 331 328 325 322 321 320 319 319 316 314 311 308 307 309 311 313 314 315 315 315 313 311 310 308 307 307 306 305 303 301 300 299 298 298 298 298 296 295
167 169 175 196 216 223 227 236 248 258 270 279 285 290 289 286 283 284 290 301 311 319 329 346 349 344 338 337 337 333 329 326 323 320 318 316 314 313 313 311 310 307 305 306 308 310 311 313 313 313 313 312 309 306 303 302 302 302 301 299 298 297 296 296 296 297 297 297 296
166 173 185 204 214 219 223 230 244 261 275 283 286 287 286 283 285 290 301 317 330 339 347 352 348 342 337 334 330 325 322 319 318 316 314 313 311 309 308 307 306 305 305 306 307 308 309 310 310 310 310 310 308 304 301 298 297 296 295 294 294 294 294 294 294 294 295 295 295
167 176 192 209 217 223 227 236 255 273 280 282 282 284 283 284 290 301 316 331 340 345 346 343 337 332 327 323 320 318 316 315 314 313 312 310 308 307 307 306 306 305 304 304 305 306 307 307 308 307 308 308 305 301 297 294 292 290 289 288 288 288 289 289 290 291 291 292 292
168 181 197 212 221 228 234 248 263 273 276 279 280 282 285 289 298 312 326 337 339 338 336 331 327 321 317 314 312 311 311 311 312 311 309 308 307 306 306 306 305 303 302 303 303 304 305 306 306 306 306 306 303 300 295 291 289 286 284 282 282 283 284 285 286 287 287 288 289
171 183 199 213 223 232 242 252 262 270 273 275 277 281 287 294 305 319 331 336 335 332 329 326 321 317 313 312 310 309 310 310 309 308 307 306 306 305 305 304 303 302 301 302 302 303 304 304 304 304 304 305 301 297 292 288 285 282 279 277 277 277 277 278 280 281 283 284 285
176 187 200 214 224 230 239 246 256 264 269 271 275 281 290 300 313 325 331 334 331 327 324 319 315 312 310 309 308 308 307 306 305 304 304 304 304 304 304 303 301 300 299 300 300 301 302 303 303 303 303 304 300 296 290 286 282 279 276 275 274 273 273 274 275 277 279 280 282
180 189 199 211 221 231 237 244 250 258 264 270 276 283 296 309 320 326 329 330 326 319 314 310 306 303 302 301 301 301 301 300 300 300 301 301 302 301 301 300 297 295 296 297 298 299 300 301 302 302 303 303 299 294 289 285 281 278 275 274 273 272 272 272 273 273 275 276 276
181 190 200 210 219 229 239 245 252 259 266 275 285 297 309 319 324 325 325 323 317 310 304 300 298 296 295 293 293 294 294 295 295 296 297 298 298 297 296 295 292 292 293 294 295 297 298 299 300 300 301 301 297 292 288 285 282 279 277 275 274 272 271 271 271 271 271 271 271
184 194 204 214 224 234 244 254 260 268 277 290 304 314 321 325 325 322 319 315 308 303 299 297 295 294 293 293 293 292 293 294 294 294 294 294 293 292 291 290 290 290 291 291 293 294 295 296 297 298 299 298 294 290 287 285 282 279 278 276 275 273 272 271 270 269 268 268 268
187 197 208 220 230 240 251 261 272 284 298 311 319 324 325 324 320 316 312 309 303 300 297 296 296 295 295 297 296 295 294 294 293 292 291 290 288 287 287 287 287 288 289 289 290 291 292 293 294 296 296 295 292 289 287 284 281 279 278 276 275 274 273 272 271 269 268 266 265
190 200 210 223 236 249 260 272 286 301 313 321 324 324 322 319 314 310 307 304 300 298 297 297 295 296 296 297 296 295 293 291 290 288 287 286 285 284 284 285 286 286 287 288 288 289 290 291 292 293 294 292 290 288 285 282 280 278 277 276 275 275 274 273 272 270 269 266 265
192 201 211 225 237 253 268 281 299 311 319 323 322 319 316 312 307 305 303 299 297 295 295 295 294 294 294 295 293 292 290 288 287 285 284 284 283 283 283 284 285 286 286 287 287 288 288 289 290 291 291 290 288 286 283 280 278 276 275 275 275 275 275 273 272 271 270 268 267
192 202 212 224 236 251 271 291 306 314 319 319 316 313 309 306 302 300 297 294 292 292 292 291 291 292 292 292 291 290 289 287 285 284 283 283 283 283 283 283 284 285 285 286 286 287 287 288 289 289 289 287 285 282 279 277 276 275 274 274 274 275 275 273 272 271 271 270 269
194 203 213 223 234 251 273 296 308 313 315 312 308 305 302 299 296 294 292 291 291 291 290 290 290 290 290 290 289 288 287 286 285 284 284 284 284 283 283 282 283 284 284 285 286 286 286 287 287 287 287 285 283 280 277 275 274 272 271 271 270 271 272 273 272 272 271 272 271